Location: Bow
(51.5261°N, 0.0167°W)
Time: 01:47:25
(UTC+00:00)

NOSS 8 (H) - Pass Details

Date: 18 September 2020
Orbit: 384 x 1790 km, 63.3° (Epoch: 30 October)

Event Time Altitude Azimuth Distance (km) Brightness Sun altitude
Rises 19:08:15 0° 215° (SW) 2,401 8.4 -10.3°
Reaches altitude 10° 19:10:24 10° 211° (SSW) 1,460 7.2 -10.6°
Maximum altitude 19:13:27 59° 131° (SE) 452 4.1 -11.0°
Drops below altitude 10° 19:16:26 10° 51° (NE) 1,438 6.6 -11.5°
Enters shadow 19:17:29 - 49° (NE) 1,897 7.3 -11.6°
